Back to catalog

STARLINK-3770

AliveCommunicationsVLEO
NORAD 52554·PAYLOAD·🇺🇸 United States

Launched May 13, 2022 from Vandenberg Space Force Base

Loading…

Next Passes (next 24 hours)

TLE

FreshSource: CelesTrak SupGP

Epoch: Sep 14, 2026, 14:37 UTC

1 52554C 22051X   26257.60951389  .00004327  00000+0  13920-3 0  2574
2 52554  53.1616   1.1966 0001052  80.3787 200.3391 15.31689519    16

Track STARLINK-3770 in real time with AllMySat

Download on the App Store